Weather in Asti

Italy     44°53′55″N   8°12′39″E
temp.,
°C
wind,
m/s
gust,
m/s
humid.,
%
clouds,
%
prec.,
mm/h
press.,
hPa
HPBL,
m
24 may, tue
tue2423:00+16sse238764 0.2 100538
02:00+15se2294100 0.3 100519
05:00+15sse1295100 0.0 100612
08:00+17sse1187100 0.0 1007180
11:00+18sse1182100 0.1 1007280
14:00+23ese226798 0.4 1006908
17:00+24e136293 3.5 10051099
20:00+21sse257890 3.9 1005160
25 may, wed
wed2523:00+16se119317 2.1 100811
02:00+16nne1195100 3.3 101026
05:00+15nnw1392100 1.2 1011154
08:00+16nne1186100 2.3 1013153
11:00+19n2277100 0.0 1014460
14:00+23n116373 0.1 10141246
17:00+24se115940 0.1 10141196
20:00+22s01726 0.3 101511
26 may, thu
thu2623:00+18w118242 0.2 101711
02:00+17wsw11881 0.2 101811
05:00+16nw229189 0.0 101822
08:00+18nne018264 0.0 1020145
11:00+22n116783 0.0 1021659
14:00+25ne22574 0.0 10201213
17:00+27ene115124 0.0 10181483
20:00+24ese116713 0.0 101812
27 may, fri
fri2723:00+20nw1179100 0.1 101911
02:00+18wnw1188100 0.8 101911
05:00+17nw229398 1.8 101918
08:00+19nne128595 2.4 1020182
11:00+23n227035 0.1 1019577
14:00+27e1156100 0.1 10171151
17:00+28ese114774 0.0 10151463
20:00+25sse116313 0.0 101411
28 may, sat
sat2823:00+21w116665 0.0 101411
02:00+19sw117820 0.0 101412
05:00+17nw118618 0.0 101211
08:00+20ene01745 0.0 1012140
11:00+24ene22532 0.0 1012684
14:00+27ene22450 0.0 1010900
17:00+28ene11460 0.0 10071109
20:00+25ne11614 0.0 100611